CZ-6A DEB, 60901

Orbit data source: Space-Track

CZ-6A DEB, 60901 is space debris in LEO originally from a launch on Tue, 06 Aug 2024 UTC launched from the Taiyaun Space Center, China (TSC). Debris objects in space refer to the collection of defunct objects orbiting the Earth. Examples of debris include non-operational satellites, rocket bodies, and fragments generated from explosions, collisions, or faulty payload assembly.

Loading next visibility...
Identifier
60901, 2024-140LG
Orbit
LEO
Country
Flag of CNCN / PRC
Related business
Manufacturer
SAST
Mission
Spacecraft
Bus & Motor
Unknown
Mass
Unknown
Launch date (UTC)
2024-08-06 (1 year ago)
Launch vehicle
Unknown
Launch site
Taiyaun Space Center, China (TSC)
Object type
Payload
Rocket body
Debris
Shape & HBR
Unknown shape, 0.1 m
Radar Cross Section
Small (<0.1 m²)

Expand to show TLE details & history
Last TLE update: 14 hours ago

TLE from 14 hours ago
0 CZ-6A DEB
1 60901U 24140LG  25350.26356018  .00005080  00000-0  11214-2 0  9997
2 60901  88.9756 291.0482 0079202 110.9633 250.0075 14.55242136 70289
Epoch: 2025-12-16T06:19Z
TLE epoch observation values (Epoch: 2025-12-16T06:19:31.599Z)
Latitude
-0.00003°
Longitude
111.01626°
Altitude
731.268 km
Speed
7.479 km/s
True Right ascension
19h 24m 11s
True Declination
0° 00' 00"
Sunlit
Object was in daylight at epoch
Visualization orbit readout
Latitude
Unknown
Longitude
Unknown
Altitude
Unknown
Speed
Unknown
Apparent Right ascension
Unknown
Apparent Declination
Unknown
Sunlit
N/A
Visualization observer readout
Local Sidereal Time
19:11:29
Azimuth
Unknown
Elevation
Unknown
Doppler factor
Unknown
Orbital elements
Apogee altitude
761.583 km
Perigee altitude
649.376 km
Semi-major axis
7,083.616 km
Eccentricity
0.00792
Inclination
88.9756°
RAAN
291.0482°
Arg. of periapsis
110.9633°
True anomaly
249.15751°
Mean anomaly
250.0075°
Eccentric anomaly
249.58222°
Mean motion
3.6405 °/min
Orbital period
98.89 mins
BSTAR
0.0011214
Loading maneuver chart data...
Computing Atmospheric mass density...
Loading historical data...
Loading historical data...
Loading historical data...
Loading historical data...
Loading historical data...
Loading historical data...
Loading historical data...

Documentation

Showing up to 5 results
|